User: anonymous   Login
Location: Homewood
(41.1836°S, 175.9581°E)
Time: 20:27:13
(UTC+00:00)
Language:

SL-08 RB Rocket - Orbit

View from above orbital plane
View from above orbital plane
View from above satellite
View from above satellite

Ground track
Ground track

The orbit data is extracted from the following two-line orbital elements,

1 26387U 00033D   24165.50457425  .00001473  00000-0  24626-3 0  9990
2 26387  97.7570 155.7478 0027095  98.5863 261.8416 14.71041752540405
Epoch (UTC): 13 June 2024 12:06:35
Eccentricity: 0.0027095
inclination: 97.7570°
perigee height: 638 km
apogee height: 677 km
right ascension of ascending node: 155.7478°
argument of perigee: 98.5863°
revolutions per day: 14.71041752
mean anomaly at epoch: 261.8416°
orbit number at epoch: 54040

The dashed part of the orbit path shows where the satellite is in the earth's shadow,  

DLR